Home   Weather   Villeurbanne   Past weeks

Flag for France Past Weather in Villeurbanne, Rhône-Alpes, France — Yesterday and Last 2 Weeks

Now
75 °F

Passing clouds.


Feels Like: 77 °F
Forecast: 56 / 83 °F
Wind: 13 mph from North

Location: Lyon / Bron

Current Time: Aug 20, 2017 at 7:31:36 pm

Latest Report: Aug 20, 2017 at 6:30 pm


Visibility: N/A

Pressure: 30.21 "Hg

Humidity: 36%

Dew Point: 46 °F

Location of VilleurbanneLocation

Past Weather in Villeurbanne — Graph

°F

Villeurbanne Temperature Yesterday

Maximum temperature yesterday: 77 °F (at 5:00 pm)
Minimum temperature yesterday: 64 °F (at 3:00 am)
Average temperature yesterday: 69 °F

High & Low Weather Summary for the Past Weeks

 TemperatureHumidityPressure
High91 °F (Aug 18, 3:00 pm)100% (Aug 8, 11:00 am)30.27 "Hg (Aug 8, 11:00 am)
Low54 °F (Aug 12, 5:00 am)22% (Aug 7, 5:30 pm)29.83 "Hg (Aug 8, 3:30 am)
Average70 °F60%30.09 "Hg
* Reported Aug 5 6:00 pm — Aug 20 6:00 pm, Villeurbanne. Weather by CustomWeather, © 2017

Note: Actual official high and low records may vary slightly from our data, if they occured in-between our weather recording intervals... More about our weather records

Advertising

Villeurbanne Weather History for the Previous 24 Hours

Scroll right to see more
 ConditionsComfort  
Time TempWeatherWind HumidityBarometerVisibility
6:00 pm
Sun, Aug 20
75 °FPassing clouds.14 mph36%30.21 "HgN/A
5:30 pm75 °FPassing clouds.15 mph36%30.21 "HgN/A
5:00 pm75 °FPassing clouds.14 mph34%30.21 "HgN/A
4:30 pm75 °FPassing clouds.14 mph34%30.21 "HgN/A
4:00 pm75 °FPassing clouds.14 mph36%30.21 "HgN/A
3:30 pm75 °FPassing clouds.15 mph36%30.24 "HgN/A
3:00 pm73 °FPassing clouds.14 mph38%30.24 "HgN/A
2:30 pm73 °FPassing clouds.17 mph41%30.24 "HgN/A
2:00 pm73 °FPassing clouds.14 mph41%30.24 "HgN/A
1:30 pm72 °FScattered clouds.15 mph44%30.24 "HgN/A
1:00 pm72 °FPassing clouds.15 mph41%30.24 "HgN/A
12:30 pm70 °FPassing clouds.14 mph46%30.24 "HgN/A
12:00 pm70 °FPassing clouds.15 mph46%30.27 "HgN/A
11:30 am70 °FPassing clouds.14 mph50%30.27 "HgN/A
11:00 am68 °FPassing clouds.13 mph53%30.27 "HgN/A
10:30 am68 °FPassing clouds.13 mph53%30.27 "HgN/A
10:00 am66 °FPassing clouds.12 mph56%30.24 "HgN/A
9:30 am64 °FPassing clouds.12 mph56%30.24 "HgN/A
9:00 am63 °FSunny.13 mph56%30.24 "Hg10 mi
8:30 am63 °FPassing clouds.7 mph56%30.24 "HgN/A
8:00 am59 °FPassing clouds.7 mph63%30.24 "HgN/A
7:30 am59 °FPassing clouds.5 mph63%30.24 "HgN/A
7:00 am59 °FPassing clouds.7 mph63%30.21 "HgN/A
6:30 am59 °FClear.7 mph63%30.21 "Hg10 mi
6:00 am59 °FClear.7 mph63%30.21 "Hg10 mi
5:30 am59 °FClear.7 mph63%30.21 "Hg10 mi
5:00 am59 °FClear.8 mph63%30.21 "Hg10 mi
4:30 am61 °FClear.7 mph59%30.21 "Hg10 mi
4:00 am61 °FClear.6 mph59%30.21 "Hg10 mi
3:30 am61 °FClear.8 mph59%30.21 "Hg10 mi
3:00 am61 °FPassing clouds.6 mph59%30.21 "HgN/A
2:30 am61 °FPassing clouds.6 mph59%30.21 "HgN/A
2:00 am63 °FPassing clouds.6 mph56%30.21 "HgN/A
1:30 am63 °FPassing clouds.6 mph56%30.21 "HgN/A
1:00 am63 °FClear.8 mph56%30.21 "Hg10 mi
12:30 am63 °FPassing clouds.6 mph56%30.21 "HgN/A
12:00 am64 °FClear.8 mph52%30.21 "Hg10 mi
11:30 pm
Sat, Aug 19
64 °FClear.8 mph52%30.21 "Hg10 mi
11:00 pm66 °FPassing clouds.6 mph49%30.21 "HgN/A
10:30 pm66 °FClear.8 mph49%30.21 "Hg10 mi
10:00 pm68 °FClear.10 mph46%30.21 "Hg10 mi
9:30 pm68 °FPassing clouds.12 mph46%30.18 "HgN/A
9:00 pm70 °FPassing clouds.12 mph43%30.18 "HgN/A
8:30 pm70 °FPassing clouds.10 mph40%30.18 "HgN/A
8:00 pm72 °FPassing clouds.10 mph38%30.15 "HgN/A
7:30 pm73 °FPassing clouds.13 mph36%30.15 "HgN/A
7:00 pm75 °FPassing clouds.12 mph34%30.15 "HgN/A
Weather by CustomWeather, © 2017

See weather overviewHow to use our weather pages